Location: Austin
(30.3000°N, 97.7500°W)
Time: 04:03:25
(UTC-06:00)

Helios 1A - Pass Details

Date: 20 November 2023
Orbit: 572 x 586 km, 98.3° (Epoch: 01 December)

Event Time Altitude Azimuth Distance (km) Brightness Sun altitude
Rises 17:50:08 0° 18° (NNE) 2,815 6.1 -4.4°
Reaches altitude 10° 17:52:20 10° 22° (NNE) 1,912 5.2 -4.9°
Maximum altitude 17:56:25 55° 101° (E) 710 3.1 -5.7°
Drops below altitude 10° 18:00:27 10° 179° (S) 1,902 5.8 -6.5°
Sets 18:02:38 0° 184° (S) 2,797 6.7 -7.0°
